Live-Position
3D-Globus wird geladen...
Über Starlink 3852
Group: 3 satellites
Beschreibung wird geladen...
Nächste Überflüge
Passes for default location (London). Set your location on the main map for personalized predictions.
Höhenverlauf
Loading altitude history...
No altitude history available
Zweizeiliger Elementsatz
1 52345U 22045Q 26126.96645242 -.00000961 00000-0 -42266-4 0 9999
2 52345 53.2169 297.6693 0001665 103.0027 257.1151 15.08832153224567
Epoch: 6. Mai 2026 •
Age: 11 hours
Aktueller Status
Höhe 544.7 km
Geschwindigkeit 7.60 km/s
Subsatellitenpunkt 50.22°N,
26.2°W
Startdatum 29. Apr. 2022
Alter 4 years
Typ internet
Startgruppe
Falcon 9 •
Group 4-16 •
47 satellites
Starlink 3889
52331
Starlink 3831 52332
Starlink 3847 52333
Starlink 3880 52334
Starlink 3814 52335
Starlink 3823 52336
Starlink 3797 52337
Starlink 3792 52339
Starlink 3818 52340
Starlink 3843 52341
Starlink 3850 52342
Starlink 3849 52343
Starlink 3851 52344
Starlink 3812 52346
Starlink 3826 52347
Starlink 3829 52348
Starlink 3819 52349
Starlink 3754 52350
Starlink 3838 52352
Starlink 3807 52353
...and 26 more
Technische Details
Klassifizierung Payload
Masse 297.00 kg
Trockenmasse 275.00 kg
Gesamtmasse 297.00 kg
Länge 0.20 m
Durchmesser 2.80 m
Spannweite 9.00 m
Form Box + pan
Hersteller SPXS
Bus-Typ Starlink
Phasenstatus In Orbit
Besitzer/Staat SPXS/US
Most Searched
Loading...